When you browse on this site, cookies collect data to enhance your experience and personalize the content and advertising you see.
Visit our Privacy Policy to learn more. By continuing to use the site, you agree to this use of cookies and data.
  • In Hungary
  • List of Countries
  • For 7 days
  • Water Temperature
  • Satellite Maps
  • Weather Map
  • News
  • Weather Widgets
  • user-avatar
    Login

    Hourly Weather Laranjeiras do Sul

    Today, 20 January, Sunday

    Time Temperature Precipitation Wind Pressure Humidity
    00:00 +18°C° 0 mm 0 mps 688 mmHg 98%
    01:00 +18°C° 0 mm 0 mps 687 mmHg 98%
    02:00 +18°C° 0 mm 0 mps 687 mmHg 99%
    03:00 +17°C° 0 mm 0 mps 687 mmHg 99%
    04:00 +17°C° 0 mm 0 mps 687 mmHg 99%
    05:00 +17°C° 0 mm 0 mps 687 mmHg 99%
    06:00 +17°C° 0 mm 0 mps 687 mmHg 99%
    07:00 +19°C° 0 mm 0 mps 688 mmHg 94%
    08:00 +23°C° 0 mm 1 mps 689 mmHg 88%
    09:00 +25°C° 0 mm 1 mps 689 mmHg 84%
    10:00 +25°C° 0.6 mm 1 mps 689 mmHg 83%
    11:00 +26°C° 0.6 mm 1 mps 689 mmHg 81%
    12:00 +27°C° 0.6 mm 2 mps 689 mmHg 80%
    13:00 +27°C° 1.1 mm 2 mps 689 mmHg 80%
    14:00 +27°C° 1.1 mm 2 mps 688 mmHg 80%
    15:00 +28°C° 1.1 mm 2 mps 688 mmHg 80%
    16:00 +28°C° 0.6 mm 1 mps 688 mmHg 78%
    17:00 +28°C° 0.6 mm 1 mps 688 mmHg 77%
    18:00 +27°C° 0.6 mm 1 mps 688 mmHg 76%
    19:00 +26°C° 0.1 mm 1 mps 688 mmHg 80%
    20:00 +22°C° 0.1 mm 0 mps 688 mmHg 85%
    21:00 +20°C° 0.1 mm 0 mps 688 mmHg 89%
    22:00 +20°C° 0 mm 0 mps 688 mmHg 90%
    23:00 +22°C° 0 mm 1 mps 688 mmHg 92%

    Tomorrow, 21 January, Monday

    Time Temperature Precipitation Wind Pressure Humidity
    00:00 +21°C° 0 mm 1 mps 688 mmHg 94%
    01:00 +21°C° 0 mm 1 mps 688 mmHg 95%
    02:00 +21°C° 0 mm 1 mps 687 mmHg 96%
    03:00 +20°C° 0 mm 1 mps 687 mmHg 97%
    04:00 +20°C° 0 mm 1 mps 687 mmHg 97%
    05:00 +20°C° 0 mm 1 mps 688 mmHg 97%
    06:00 +20°C° 0 mm 1 mps 688 mmHg 98%
    07:00 +22°C° 0 mm 1 mps 689 mmHg 90%
    08:00 +24°C° 0 mm 1 mps 689 mmHg 83%
    09:00 +26°C° 0 mm 1 mps 690 mmHg 76%
    10:00 +27°C° 0.4 mm 1 mps 690 mmHg 75%
    11:00 +28°C° 0.4 mm 2 mps 690 mmHg 73%
    12:00 +29°C° 0.4 mm 2 mps 690 mmHg 72%
    13:00 +29°C° 1.6 mm 2 mps 690 mmHg 75%
    14:00 +29°C° 1.6 mm 2 mps 689 mmHg 78%
    15:00 +29°C° 1.6 mm 2 mps 689 mmHg 80%
    16:00 +29°C° 1.4 mm 1 mps 689 mmHg 82%
    17:00 +28°C° 1.4 mm 1 mps 688 mmHg 83%
    18:00 +28°C° 1.4 mm 1 mps 688 mmHg 84%
    19:00 +26°C° 0.1 mm 1 mps 688 mmHg 86%
    20:00 +24°C° 0.1 mm 1 mps 688 mmHg 88%
    21:00 +23°C° 0.1 mm 1 mps 689 mmHg 91%
    22:00 +22°C° 0 mm 1 mps 689 mmHg 92%
    23:00 +22°C° 0 mm 1 mps 689 mmHg 93%

    Day after tomorrow, 22 January, Tuesday

    Time Temperature Precipitation Wind Pressure Humidity
    00:00 +22°C° 0 mm 1 mps 689 mmHg 95%
    01:00 +21°C° 0 mm 1 mps 688 mmHg 95%
    02:00 +21°C° 0 mm 1 mps 688 mmHg 95%
    03:00 +21°C° 0 mm 1 mps 688 mmHg 96%
    04:00 +21°C° 0 mm 1 mps 688 mmHg 96%
    05:00 +20°C° 0 mm 1 mps 688 mmHg 96%
    06:00 +20°C° 0 mm 1 mps 689 mmHg 96%
    07:00 +23°C° 0 mm 1 mps 689 mmHg 89%
    08:00 +23°C° 0 mm 0 mps 690 mmHg 81%
    09:00 +26°C° 0 mm 0 mps 691 mmHg 74%
    10:00 +28°C° 0.1 mm 0 mps 691 mmHg 68%
    11:00 +29°C° 0.1 mm 0 mps 691 mmHg 62%
    12:00 +31°C° 0.1 mm 0 mps 691 mmHg 56%
    13:00 +33°C° 0.8 mm 1 mps 691 mmHg 56%
    14:00 +33°C° 0.8 mm 1 mps 690 mmHg 56%
    15:00 +32°C° 0.8 mm 1 mps 689 mmHg 56%
    16:00 +32°C° 0.4 mm 1 mps 689 mmHg 59%
    17:00 +31°C° 0.4 mm 1 mps 689 mmHg 62%
    18:00 +31°C° 0.4 mm 1 mps 688 mmHg 66%
    19:00 +29°C° 0.1 mm 1 mps 688 mmHg 70%
    20:00 +27°C° 0.1 mm 1 mps 688 mmHg 75%
    21:00 +25°C° 0.1 mm 1 mps 688 mmHg 79%
    22:00 +24°C° 0 mm 1 mps 688 mmHg 82%
    23:00 +24°C° 0 mm 1 mps 688 mmHg 85%

    23 January, Wednesday

    Time Temperature Precipitation Wind Pressure Humidity
    00:00 +23°C° 0 mm 1 mps 689 mmHg 89%
    01:00 +23°C° 0 mm 1 mps 688 mmHg 90%
    02:00 +22°C° 0 mm 1 mps 688 mmHg 91%
    03:00 +22°C° 0 mm 1 mps 688 mmHg 92%
    04:00 +22°C° 0 mm 1 mps 688 mmHg 93%
    05:00 +22°C° 0 mm 1 mps 688 mmHg 94%
    06:00 +19°C° 0 mm 0 mps 688 mmHg 94%
    07:00 +22°C° 0.6 mm 0 mps 689 mmHg 90%
    08:00 +24°C° 0.6 mm 0 mps 690 mmHg 85%
    09:00 +26°C° 0.6 mm 0 mps 691 mmHg 81%
    10:00 +27°C° 1.2 mm 0 mps 691 mmHg 74%
    11:00 +30°C° 1.2 mm 1 mps 691 mmHg 67%
    12:00 +31°C° 1.2 mm 1 mps 691 mmHg 60%
    13:00 +32°C° 0.2 mm 1 mps 690 mmHg 56%
    14:00 +34°C° 0.2 mm 2 mps 690 mmHg 52%
    15:00 +34°C° 0.2 mm 2 mps 689 mmHg 48%
    16:00 +32°C° 0 mm 2 mps 689 mmHg 53%
    17:00 +32°C° 0 mm 1 mps 688 mmHg 58%
    18:00 +31°C° 0 mm 1 mps 688 mmHg 63%
    19:00 +29°C° 0.3 mm 1 mps 688 mmHg 68%
    20:00 +27°C° 0.3 mm 1 mps 688 mmHg 73%
    21:00 +26°C° 0.3 mm 1 mps 689 mmHg 77%
    22:00 +25°C° 0.1 mm 1 mps 689 mmHg 80%
    23:00 +24°C° 0.1 mm 1 mps 689 mmHg 82%

    24 January, Thursday

    Time Temperature Precipitation Wind Pressure Humidity
    00:00 +24°C° 0.1 mm 1 mps 689 mmHg 84%
    01:00 +23°C° 0 mm 1 mps 688 mmHg 85%
    02:00 +22°C° 0 mm 1 mps 687 mmHg 86%
    03:00 +22°C° 0 mm 1 mps 687 mmHg 87%
    04:00 +22°C° 0.2 mm 1 mps 687 mmHg 88%
    05:00 +21°C° 0.2 mm 1 mps 687 mmHg 89%
    06:00 +21°C° 0.2 mm 1 mps 687 mmHg 90%
    07:00 +23°C° 0 mm 1 mps 688 mmHg 83%
    08:00 +26°C° 0 mm 1 mps 689 mmHg 76%
    09:00 +28°C° 0 mm 1 mps 689 mmHg 69%
    10:00 +30°C° 0.1 mm 1 mps 689 mmHg 61%
    11:00 +32°C° 0.1 mm 1 mps 689 mmHg 52%
    12:00 +34°C° 0.1 mm 1 mps 689 mmHg 44%
    13:00 +34°C° 0 mm 1 mps 689 mmHg 43%
    14:00 +35°C° 0 mm 2 mps 688 mmHg 42%
    15:00 +36°C° 0 mm 2 mps 687 mmHg 41%
    16:00 +34°C° 0 mm 2 mps 687 mmHg 47%
    17:00 +32°C° 0 mm 2 mps 687 mmHg 53%
    18:00 +31°C° 0 mm 2 mps 686 mmHg 58%
    19:00 +29°C° 0 mm 1 mps 686 mmHg 62%
    20:00 +27°C° 0 mm 1 mps 687 mmHg 66%
    21:00 +25°C° 0 mm 1 mps 687 mmHg 70%
    22:00 +25°C° 0 mm 2 mps 687 mmHg 69%
    23:00 +25°C° 0 mm 3 mps 688 mmHg 68%

    25 January, Friday

    Time Temperature Precipitation Wind Pressure Humidity
    00:00 +25°C° 0 mm 4 mps 688 mmHg 68%
    01:00 +24°C° 0 mm 3 mps 687 mmHg 73%
    02:00 +23°C° 0 mm 2 mps 687 mmHg 78%
    03:00 +21°C° 0 mm 2 mps 686 mmHg 83%
    04:00 +20°C° 0 mm 2 mps 686 mmHg 86%
    05:00 +20°C° 0 mm 1 mps 686 mmHg 89%
    06:00 +20°C° 0 mm 1 mps 686 mmHg 91%
    07:00 +21°C° 0 mm 2 mps 687 mmHg 85%
    08:00 +24°C° 0 mm 2 mps 688 mmHg 78%
    09:00 +26°C° 0 mm 2 mps 689 mmHg 71%
    10:00 +28°C° 0 mm 2 mps 689 mmHg 65%
    11:00 +30°C° 0 mm 1 mps 689 mmHg 59%
    12:00 +32°C° 0 mm 1 mps 689 mmHg 52%
    13:00 +33°C° 0.1 mm 1 mps 688 mmHg 50%
    14:00 +31°C° 0.1 mm 0 mps 688 mmHg 48%
    15:00 +32°C° 0.1 mm 0 mps 687 mmHg 45%
    16:00 +31°C° 0 mm 0 mps 687 mmHg 50%
    17:00 +30°C° 0 mm 0 mps 687 mmHg 55%
    18:00 +29°C° 0 mm 0 mps 686 mmHg 60%
    19:00 +27°C° 0.4 mm 0 mps 687 mmHg 66%
    20:00 +26°C° 0.4 mm 1 mps 687 mmHg 72%
    21:00 +24°C° 0.4 mm 1 mps 687 mmHg 78%
    22:00 +24°C° 1.3 mm 1 mps 687 mmHg 83%
    23:00 +23°C° 1.3 mm 2 mps 687 mmHg 88%
    Show more